星链-32268 (STARLINK-32268)

导读 | 星芒AI

STARLINK-32268 是 SpaceX Starlink 卫星互联网项目中的一颗低轨卫星。该卫星属于 Starlink 群体的一部分,旨在为全球用户提供高速互联网服务。它运行在约 550 公里的近地轨道上,采用可控制的推进系统,以减少太空碎片风险。STARLINK-32268 于 2023 年由 Falcon 9 火箭发射入轨,与其他 Starlink 卫星协同工作,提升网络覆盖和连接稳定性。该卫星支持 Ku 和 Ka 频段通信,是 SpaceX 实现全球宽带目标的重要组成部分。

基本信息
目录编号:
60372
目录名称:
STARLINK-32268
国际标识:
2024-138T
轨道中心:
EARTH
卫星名称:
星链-32268 (STARLINK-32268)
卫星全名:
星链-32268 (STARLINK-32268)
卫星状态:
在轨 (已飞行503 天)
发射日期:
2024-08-04 UTC
国别 :
美国 (US)
星等 :
--
轨道信息
数据来源 国际轨道数据
星历时间: 2025-12-20T06:35:56+0800
8小时前
查看轨道信息
半长轴: 6853.306km
偏心率: 0.0001056
轨道倾角: 53.163°
近地点辐角 267.597°
升交点赤经 320.319°
平近点角 92.491°
近地点: 474.445km
远地点: 475.893km
周期: 94.104分钟
每日圈数: 15.302155
详细信息
卫星平台:
Starlink v2.0 mini
运营商:
太空探索技术公司
运营商所在国:
美国
制造商(研发单位):
太空探索技术公司
制造商所在国:
美国
使用方式:
暂无
卫星简介
星链(Starlink)计划是由太空探索技术公司(SpaceX)提出的一个巨型低轨卫星互联网星座项目,计划在2019年至2024年间在太空搭建由约1.2万颗卫星组成的“星链”网络,其中1584颗将部署在地球上空550千米处的近地轨道,并从2020年开始工作。该卫星仍在工作。
2D轨道图
3D轨道图
轨道高度分析图
轨道倾角分析图
轨道综合分析图
查看轨道综合分析图